Showing default

SAL-E, 68458

Orbit data source: Space-Track

SAL-E, 68458 is a payload satellite owned by Cal Poly (US) in SSO that was launched on Mon, 30 Mar 2026 UTC via an FALCON 9 launch vehicle from the Air Force Western Test Range (AFWTR). Payload-class satellites include a variety of spacecraft equipped with specific instruments for various scientific and technological missions. These include communications satellites like Starlink; space stations such as the ISS; scientific satellites like the Hubble; Earth observation satellites from companies like Planet Labs, Umbra, and HawkEye 360; GPS; miniature CubeSats for education and research; and military/defense satellites.

Loading next visibility...
Identifier
68458, 2026-067AU
Orbit
SSO
Country
Flag of USUS
Related business
Manufacturer
Cal Poly
Mission
Operational Amateur Technology
Bus & Motor
CUBESAT 3U, Unknown motor
Mass
~5 kg wet, ~5 kg dry
Launch date (UTC)
2026-03-30 (6 months ago)
Launch vehicle
FALCON 9
Launch site
Air Force Western Test Range (AFWTR)
Object type
Payload
Rocket body
Debris
Shape & HBR
Box, 0.2 m
Radar Cross Section
0.035 m², Medium (>0.1 m² and < 1m²)

Expand to show TLE details & history
Last TLE update: 10 hours ago

TLE from 10 hours ago
0 SAL-E
1 68458U 26067AU  26264.86153359  .00005061  00000-0  24523-3 0  9993
2 68458  97.4580 221.7526 0007820  95.2045 265.0082 15.18958224 26605
Epoch: 2026-09-21T20:40Z
TLE epoch observation values (Epoch: 2026-09-21T20:40:36.502Z)
Latitude
-0.00001°
Longitude
-89.13478°
Altitude
512.548 km
Speed
7.607 km/s
True Right ascension
14h 47m 00s
True Declination
0° 00' 00"
Sunlit
Object was in daylight at epoch
Visualization orbit readout
Latitude
Unknown
Longitude
Unknown
Altitude
Unknown
Speed
Unknown
Apparent Right ascension
Unknown
Apparent Declination
Unknown
Sunlit
N/A
Visualization observer readout
Local Sidereal Time
23:52:28
Azimuth
Unknown
Elevation
Unknown
Doppler factor
Unknown
Orbital elements
Apogee altitude
511.341 km
Perigee altitude
500.574 km
Semi-major axis
6,884.094 km
Eccentricity
0.00078
Inclination
97.458°
RAAN
221.7526°
Arg. of periapsis
95.2045°
True anomaly
264.91894°
Mean anomaly
265.0082°
Eccentric anomaly
264.96357°
Mean motion
3.79991 °/min
Orbital period
94.74 mins
BSTAR
0.00024523
Loading maneuver chart data...
Computing Atmospheric mass density...
Loading historical data...
Loading historical data...
Loading historical data...
Loading historical data...
Loading historical data...
Loading historical data...
Loading historical data...

Documentation

Showing up to 5 results
|